User: anonymous   Login
Location: Bernadets
(43.3537°N, 0.3167°E)
Time: 18:18:06
(UTC+00:00)
Language:

CSL-04 Debris - Orbit

View from above orbital plane
View from above orbital plane
View from above satellite
View from above satellite

Ground track
Ground track

The orbit data is extracted from the following two-line orbital elements,

1 25733U 99025D   22021.34884883  .00000198  00000-0  12167-3 0  9996
2 25733  98.8861  61.6841 0015774 104.2291 256.0636 14.16544622172284
Epoch (UTC): 21 January 2022 08:22:20
Eccentricity: 0.0015774
inclination: 98.8861°
perigee height: 825 km
apogee height: 848 km
right ascension of ascending node: 61.6841°
argument of perigee: 104.2291°
revolutions per day: 14.16544622
mean anomaly at epoch: 256.0636°
orbit number at epoch: 17228

The dashed part of the orbit path shows where the satellite is in the earth's shadow,  

DLR